Location: Plymouth
(43.7570°N, 71.6890°W)
Time: 11:48:59
(UTC-04:00)

Amateur Radio Satellites - All Passes

Search period start: 19 September 2014 11:18
Search period end: 20 September 2014 11:18
Location: Plymouth, 43.7570°N, 71.6890°W

Satellite Date Start Highest point End Downlink Frequencies (MHz)
Time Altitude Azimuth
Sapphire 19 Sep 11:40:41 11:45:08 27° 109° (ESE) 11:49:37 437.095 MHz 1200 baud AX-25 AFSK
Oscar 19 19 Sep 11:42:14 11:43:07 10° 55° (NE) 11:44:00 437.125 CW, 437.150 USB
FUNcube-1 19 Sep 11:49:15 11:53:40 44° 289° (WNW) 11:58:01 145.950 - 145.970 MHz USB
Oscar 11 19 Sep 12:01:57 12:04:27 15° 298° (WNW) 12:06:56 145.825 FM, Beacon 2401.500 USB
PCSat 19 Sep 12:06:51 12:12:01 48° 114° (ESE) 12:17:13 145.825 MHz
Oscar 16 19 Sep 12:17:25 12:21:21 23° 63° (ENE) 12:25:19 437.025 USB, Beacon 2401.1428
JAS-1B 19 Sep 12:19:20 12:25:08 22° 59° (ENE) 12:30:19 435.800 - 435.900 CW/SSB
HO-68 19 Sep 12:27:22 12:30:46 14° 312° (NW) 12:34:12 435.675 MHz FM
AO-Echo 19 Sep 12:35:01 12:37:21 14° 60° (ENE) 12:39:42 ?
RS-15 19 Sep 12:49:38 13:00:40 67° 50° (NE) 13:12:07 29.354 - 29.394 USB, Beacon 29.352 USB
ITAMSAT 1 19 Sep 13:00:03 13:04:03 23° 63° (ENE) 13:08:04 435.822 SSB
Uribyol 2 19 Sep 13:04:02 13:08:17 27° 64° (ENE) 13:12:33 436.500 FM
Oscar 19 19 Sep 13:16:20 13:21:30 70° 73° (ENE) 13:26:41 437.125 CW, 437.150 USB
Sapphire 19 Sep 13:23:04 13:28:17 48° 307° (NW) 13:33:33 437.095 MHz 1200 baud AX-25 AFSK
TMSAT-1 19 Sep 13:24:58 13:27:49 15° 58° (ENE) 13:30:40 436.925 FM
AO-27 19 Sep 13:33:51 13:38:45 46° 69° (ENE) 13:43:41 436.795 MHz FM
PCSat 19 Sep 13:50:55 13:55:39 30° 313° (NW) 14:00:24 145.825 MHz
Oscar 16 19 Sep 13:55:18 14:00:21 52° 260° (W) 14:05:26 437.025 USB, Beacon 2401.1428
JAS-1B 19 Sep 14:06:28 14:15:09 85° 255° (WSW) 14:22:23 435.800 - 435.900 CW/SSB
Oscar 10/S400 19 Sep 14:08:48 14:20:47 17° 146° (SE) 14:31:51 145.825 - 145.975 CW/USB, Beacon 145.810 USB
AO-Echo 19 Sep 14:10:49 14:15:33 74° 257° (WSW) 14:20:16 ?
Gurwin Techsat 1B 19 Sep 14:24:35 14:29:49 62° 72° (ENE) 14:35:04 435.225 FM
ITAMSAT 1 19 Sep 14:38:14 14:43:13 49° 260° (W) 14:48:15 435.822 SSB
AO-7 19 Sep 14:38:16 14:45:13 31° 55° (NE) 14:52:09 29.400 - 29.500 MHz
Uribyol 2 19 Sep 14:42:40 14:47:32 42° 262° (W) 14:52:28 436.500 FM
Oscar 19 19 Sep 14:58:21 15:01:21 15° 270° (W) 15:04:22 437.125 CW, 437.150 USB
TMSAT-1 19 Sep 15:01:44 15:07:01 84° 256° (WSW) 15:12:21 436.925 FM
RS-15 19 Sep 15:02:34 15:12:27 39° 252° (WSW) 15:22:45 29.354 - 29.394 USB, Beacon 29.352 USB
Sapphire 19 Sep 15:11:11 15:13:07 12° 329° (NNW) 15:15:02 437.095 MHz 1200 baud AX-25 AFSK
AO-27 19 Sep 15:14:23 15:18:28 24° 266° (W) 15:22:36 436.795 MHz FM
Uosat F 19 Sep 15:21:09 15:25:23 29° 65° (ENE) 15:29:39 435.120 FM
JAS-1B 19 Sep 16:01:17 16:06:21 17° 270° (W) 16:11:01 435.800 - 435.900 CW/SSB
Gurwin Techsat 1B 19 Sep 16:06:42 16:10:13 18° 269° (W) 16:13:45 435.225 FM
OPAL 19 Sep 16:21:46 16:24:11 13° 91° (E) 16:26:35 ?
AO-7 19 Sep 16:29:09 16:37:25 68° 255° (WSW) 16:45:43 29.400 - 29.500 MHz
Saudisat 1A 19 Sep 16:31:21 16:34:36 20° 112° (ESE) 16:37:51 436.775 MHz
Hamsat 19 Sep 16:37:43 16:40:22 16° 63° (ENE) 16:43:02 145.90 MHz
TMSAT-1 19 Sep 16:46:40 16:47:44 11° 273° (W) 16:48:47 436.925 FM
JAS-2 19 Sep 16:52:35 16:57:04 30° 66° (ENE) 17:01:32 435.800 - 435.900 CW/SSB, 435.910 FM
Uosat F 19 Sep 16:59:28 17:04:03 36° 262° (W) 17:08:40 435.120 FM
MaSat-1 19 Sep 17:05:48 17:09:06 24° 50° (NE) 17:12:01 437.345 MHz
OPAL 19 Sep 17:58:29 18:03:41 80° 288° (WNW) 18:08:47 ?
Saudisat 1A 19 Sep 18:09:35 18:13:51 48° 310° (NW) 18:18:09 436.775 MHz
Hamsat 19 Sep 18:11:38 18:15:54 54° 260° (W) 18:20:12 145.90 MHz
SO-67 19 Sep 18:12:45 18:15:11 18° 68° (ENE) 18:17:39 435.3500 MHz FM
AO-7 19 Sep 18:28:25 18:31:41 13° 274° (W) 18:34:58 29.400 - 29.500 MHz
JAS-2 19 Sep 18:37:24 18:42:09 34° 263° (W) 18:46:51 435.800 - 435.900 CW/SSB, 435.910 FM
STRAND 1 19 Sep 18:39:54 18:43:44 21° 93° (E) 18:47:33 ?
KITSAT 1 19 Sep 18:42:11 18:49:14 35° 108° (ESE) 18:56:18 435.175 FM
MaSat-1 19 Sep 18:42:37 18:45:47 25° 254° (WSW) 18:48:34 437.345 MHz
PCSat 19 Sep 19:11:39 19:13:55 12° 32° (NNE) 19:16:10 145.825 MHz
HO-68 19 Sep 19:21:16 19:26:44 25° 56° (NE) 19:32:12 435.675 MHz FM
OPAL 19 Sep 19:39:37 19:41:42 12° 306° (NW) 19:43:46 ?
SO-67 19 Sep 19:45:04 19:48:03 27° 264° (W) 19:51:03 435.3500 MHz FM
Saudisat 1A 19 Sep 19:53:35 19:54:31 11° 331° (NNW) 19:55:26 436.775 MHz
UKube-1 19 Sep 20:03:57 20:05:55 13° 60° (ENE) 20:07:54 145.840 MHz, 145.915 MHz
AO-40 19 Sep 20:10:55 00:16:01 34° 189° (S) 05:26:47 Beacon 2401.320
STRAND 1 19 Sep 20:18:14 20:23:12 51° 290° (WNW) 20:28:10 ?
Sapphire 19 Sep 20:26:29 20:31:21 32° 48° (NE) 20:36:10 437.095 MHz 1200 baud AX-25 AFSK
KITSAT 1 19 Sep 20:36:16 20:44:14 60° 308° (NW) 20:52:15 435.175 FM
PCSat 19 Sep 20:53:20 20:58:39 52° 54° (NE) 21:03:55 145.825 MHz
HO-68 19 Sep 21:06:38 21:13:45 75° 255° (WSW) 21:20:56 435.675 MHz FM
FUNcube-1 19 Sep 21:11:45 21:14:54 19° 64° (ENE) 21:18:06 145.950 - 145.970 MHz USB
Oscar 11 19 Sep 21:20:31 21:24:45 53° 73° (ENE) 21:29:02 145.825 FM, Beacon 2401.500 USB
UKube-1 19 Sep 21:37:15 21:41:33 70° 257° (WSW) 21:45:54 145.840 MHz, 145.915 MHz
SO-50 19 Sep 22:02:46 22:06:50 35° 116° (ESE) 22:11:01 436.795 FM
Sapphire 19 Sep 22:09:46 22:14:55 44° 247° (WSW) 22:20:01 437.095 MHz 1200 baud AX-25 AFSK
KITSAT 1 19 Sep 22:35:41 22:41:30 21° 334° (NNW) 22:47:21 435.175 FM
PCSat 19 Sep 22:37:24 22:41:43 25° 252° (WSW) 22:46:01 145.825 MHz
FUNcube-1 19 Sep 22:46:42 22:50:56 46° 262° (W) 22:55:18 145.950 - 145.970 MHz USB
Oscar 11 19 Sep 22:58:44 23:01:16 15° 269° (W) 23:03:48 145.825 FM, Beacon 2401.500 USB
HO-68 19 Sep 22:59:43 23:02:38 13° 274° (W) 23:05:33 435.675 MHz FM
UOSAT-12 19 Sep 23:39:59 23:43:59 30° 114° (ESE) 23:48:04 437.025 FM, 437.400 FM
SO-50 19 Sep 23:43:23 23:47:26 31° 315° (NW) 23:51:34 436.795 FM
KITSAT 1 20 Sep 00:36:35 00:40:41 14° 4° (N) 00:44:46 435.175 FM
Saudisat 1A 20 Sep 00:55:48 00:59:38 28° 44° (NE) 01:03:26 436.775 MHz
UOSAT-12 20 Sep 01:19:41 01:24:01 38° 313° (NW) 01:28:27 437.025 FM, 437.400 FM
Oscar 19 20 Sep 01:27:27 01:31:27 22° 93° (E) 01:35:24 437.125 CW, 437.150 USB
ISS 20 Sep 01:41:16 01:42:47 13° 131° (SE) 01:44:18 145.800 FM
AO-27 20 Sep 01:46:58 01:49:47 15° 90° (E) 01:52:36 436.795 MHz FM
JAS-1B 20 Sep 01:51:58 01:56:00 19° 91° (E) 02:00:00 435.800 - 435.900 CW/SSB
Oscar 16 20 Sep 02:05:36 02:10:39 51° 100° (E) 02:15:39 437.025 USB, Beacon 2401.1428
AO-Echo 20 Sep 02:16:35 02:20:53 31° 96° (E) 02:25:16 ?
KITSAT 1 20 Sep 02:32:50 02:39:28 27° 34° (NE) 02:46:05 435.175 FM
Saudisat 1A 20 Sep 02:35:11 02:39:19 39° 243° (WSW) 02:43:25 436.775 MHz
Gurwin Techsat 1B 20 Sep 02:40:11 02:44:19 22° 93° (E) 02:48:24 435.225 FM
ITAMSAT 1 20 Sep 02:49:33 02:54:40 54° 100° (E) 02:59:46 435.822 SSB
Oscar 10/S400 20 Sep 02:52:43 03:57:47 25° 241° (WSW) 06:57:03 145.825 - 145.975 CW/USB, Beacon 145.810 USB
Uribyol 2 20 Sep 02:53:38 02:58:50 63° 102° (ESE) 03:04:00 436.500 FM
Oscar 19 20 Sep 03:06:04 03:11:02 48° 290° (WNW) 03:15:57 437.125 CW, 437.150 USB
ISS 20 Sep 03:15:43 03:19:03 89° 328° (NNW) 03:22:23 145.800 FM
RS-15 20 Sep 03:16:18 03:25:41 34° 106° (ESE) 03:34:56 29.354 - 29.394 USB, Beacon 29.352 USB
TMSAT-1 20 Sep 03:16:31 03:21:22 35° 96° (E) 03:26:11 436.925 FM
AO-27 20 Sep 03:24:38 03:29:51 74° 287° (WNW) 03:35:03 436.795 MHz FM
OPAL 20 Sep 03:36:46 03:41:13 30° 63° (ENE) 03:45:43 ?
JAS-1B 20 Sep 03:41:34 03:47:13 55° 290° (WNW) 03:52:46 435.800 - 435.900 CW/SSB
Oscar 16 20 Sep 03:45:42 03:49:39 23° 297° (WNW) 03:53:35 437.025 USB, Beacon 2401.1428
AO-Echo 20 Sep 03:55:22 03:59:37 32° 292° (WNW) 04:03:58 ?
Gurwin Techsat 1B 20 Sep 04:19:25 04:24:32 50° 290° (WNW) 04:29:38 435.225 FM
KITSAT 1 20 Sep 04:27:57 04:36:05 85° 58° (ENE) 04:44:09 435.175 FM
AO-7 20 Sep 04:29:24 04:37:01 39° 98° (E) 04:44:35 29.400 - 29.500 MHz
ITAMSAT 1 20 Sep 04:29:53 04:33:47 22° 298° (WNW) 04:37:41 435.822 SSB
Uribyol 2 20 Sep 04:34:13 04:37:49 19° 299° (WNW) 04:41:26 436.500 FM
ISS 20 Sep 04:53:15 04:56:06 25° 347° (NNW) 04:58:56 145.800 FM
SO-50 20 Sep 04:53:47 04:55:38 12° 29° (NNE) 04:57:29 436.795 FM
TMSAT-1 20 Sep 04:56:33 05:01:13 32° 294° (WNW) 05:05:53 436.925 FM
Uosat F 20 Sep 05:05:14 05:10:14 62° 102° (ESE) 05:15:12 435.120 FM
AO-27 20 Sep 05:07:01 05:08:27 11° 305° (NW) 05:09:53 436.795 MHz FM
OPAL 20 Sep 05:15:08 05:19:57 39° 260° (W) 05:24:50 ?
RS-15 20 Sep 05:26:08 05:37:08 72° 308° (NW) 05:48:06 29.354 - 29.394 USB, Beacon 29.352 USB
JAS-2 20 Sep 05:42:49 05:47:57 28° 95° (E) 05:53:34 435.800 - 435.900 CW/SSB, 435.910 FM
Hamsat 20 Sep 05:56:37 06:00:04 24° 94° (E) 06:03:29 145.90 MHz
STRAND 1 20 Sep 05:56:58 06:01:31 35° 67° (ENE) 06:06:06 ?
AO-7 20 Sep 06:22:04 06:29:59 52° 297° (WNW) 06:37:53 29.400 - 29.500 MHz
KITSAT 1 20 Sep 06:24:47 06:30:29 22° 257° (WSW) 06:36:12 435.175 FM
UOSAT-12 20 Sep 06:30:15 06:30:50 10° 26° (NNE) 06:31:25 437.025 FM, 437.400 FM
ISS 20 Sep 06:30:54 06:33:34 22° 7° (N) 06:36:13 145.800 FM
SO-50 20 Sep 06:32:38 06:37:19 50° 50° (NE) 06:42:03 436.795 FM
Uosat F 20 Sep 06:45:10 06:48:33 18° 299° (WNW) 06:51:55 435.120 FM
SO-67 20 Sep 07:07:36 07:10:01 18° 93° (E) 07:12:24 435.3500 MHz FM
JAS-2 20 Sep 07:27:26 07:33:12 52° 289° (WNW) 07:39:41 435.800 - 435.900 CW/SSB, 435.910 FM
Hamsat 20 Sep 07:32:17 07:36:04 31° 291° (WNW) 07:39:47 145.90 MHz
STRAND 1 20 Sep 07:36:16 07:40:43 30° 264° (W) 07:45:13 ?
RS-15 20 Sep 07:42:33 07:51:47 30° 338° (NNW) 08:01:07 29.354 - 29.394 USB, Beacon 29.352 USB
ISS 20 Sep 08:07:32 08:10:49 52° 27° (NNE) 08:14:04 145.800 FM
UOSAT-12 20 Sep 08:07:50 08:12:18 40° 48° (NE) 08:16:43 437.025 FM, 437.400 FM
SO-50 20 Sep 08:13:49 08:17:37 23° 248° (WSW) 08:21:25 436.795 FM
AO-7 20 Sep 08:17:26 08:20:52 13° 319° (NW) 08:24:18 29.400 - 29.500 MHz
MaSat-1 20 Sep 08:27:35 08:32:36 78° 115° (ESE) 08:37:31 437.345 MHz
HO-68 20 Sep 08:34:08 08:39:07 20° 90° (E) 08:44:05 435.675 MHz FM
SO-67 20 Sep 08:40:06 08:43:04 27° 289° (WNW) 08:46:02 435.3500 MHz FM
UKube-1 20 Sep 09:25:08 09:28:07 18° 93° (E) 09:31:04 145.840 MHz, 145.915 MHz
ISS 20 Sep 09:44:37 09:47:20 23° 224° (SW) 09:50:02 145.800 FM
UOSAT-12 20 Sep 09:48:17 09:52:19 29° 246° (WSW) 09:56:18 437.025 FM, 437.400 FM
RS-15 20 Sep 10:00:02 10:08:50 26° 13° (NNE) 10:17:48 29.354 - 29.394 USB, Beacon 29.352 USB
MaSat-1 20 Sep 10:06:28 10:09:53 18° 313° (NW) 10:13:13 437.345 MHz
HO-68 20 Sep 10:20:23 10:27:35 81° 289° (WNW) 10:34:45 435.675 MHz FM
FUNcube-1 20 Sep 10:34:35 10:38:45 32° 96° (E) 10:42:50 145.950 - 145.970 MHz USB
Oscar 11 20 Sep 10:42:48 10:47:11 89° 283° (WNW) 10:51:31 145.825 FM, Beacon 2401.500 USB
UKube-1 20 Sep 11:00:22 11:04:32 45° 289° (WNW) 11:08:41 145.840 MHz, 145.915 MHz
Sapphire 20 Sep 11:11:05 11:14:52 20° 106° (ESE) 11:18:41 437.095 MHz 1200 baud AX-25 AFSK
